EW4727 Weather Reports


time (UTC)temp
C
wind
direction
speed
KPH
gust
KPH
rain 1hr
cm
rain 24hr
cm
rain mn
cm
humidity
%
barometer
mb
20180818023705 24 94 11.3 24.1 0.00 0.00 0.00 61 1015.0
20180818022707 25 96 12.9 29.0 0.00 0.00 0.00 61 1015.1
20180818021705 25 88 11.3 22.5 0.00 0.00 0.00 61 1014.9
20180818020705 25 100 11.3 32.2 0.00 0.00 0.00 62 1015.0
20180818015705 25 59 9.7 24.1 0.00 0.00 0.00 62 1015.0
20180818014704 25 57 14.5 29.0 0.00 0.00 0.00 63 1015.0
20180818013704 25 117 4.8 22.5 0.00 0.00 0.00 65 1015.0
20180818012705 24 63 8.0 14.5 0.00 0.00 0.00 67 1015.1
20180818011704 23 91 3.2 14.5 0.00 0.00 0.00 70 1015.1
20180818010706 23 75 6.4 29.0 0.00 0.00 0.00 72 1015.2
20180818005709 23 64 1.6 11.3 0.00 0.00 0.00 75 1015.3
20180818004705 23 45 1.6 9.7 0.00 0.00 0.00 76 1015.5
20180818003704 23 45 0.0 1.6 0.00 0.00 0.00 76 1015.5
20180818002704 23 45 0.0 3.2 0.00 0.00 0.00 77 1015.6
20180818001704 23 45 0.0 1.6 0.00 0.00 0.00 77 1015.6
20180818000704 23 45 1.6 4.8 0.00 0.00 0.00 77 1015.6
20180817235704 23 45 0.0 4.8 0.00 0.00 0.00 77 1015.4
20180817233705 23 48 1.6 9.7 0.00 0.00 0.00 77 1015.3
20180817232705 23 50 1.6 9.7 0.00 0.00 0.00 76 1015.3
20180817231705 23 50 3.2 8.0 0.00 0.00 0.00 76 1015.3
20180817230704 23 42 0.0 1.6 0.00 0.00 0.00 76 1015.2
20180817225705 23 42 0.0 1.6 0.00 0.00 0.00 75 1015.2
20180817224714 23 42 0.0 1.6 0.00 0.00 0.00 75 1015.2
20180817223705 23 42 0.0 0.0 0.00 0.00 0.00 74 1015.2
20180817222705 24 42 0.0 0.0 0.00 0.00 0.00 73 1015.2
20180817221710 24 42 0.0 4.8 0.00 0.00 0.00 72 1015.2
20180817220704 25 37 3.2 8.0 0.00 0.00 0.00 72 1015.2
20180817215705 25 25 1.6 4.8 0.00 0.00 0.00 71 1015.1
20180817214704 25 355 0.0 1.6 0.00 0.00 0.00 71 1015.1
20180817213715 25 350 0.0 3.2 0.00 0.00 0.00 72 1015.1
20180817212704 25 346 0.0 4.8 0.00 0.00 0.00 72 1015.0
20180817211705 25 345 1.6 11.3 0.00 0.00 0.00 72 1015.1
20180817210704 25 0 1.6 8.0 0.00 0.00 0.00 71 1015.0
20180817205704 25 341 3.2 11.3 0.00 0.00 0.00 71 1015.1
20180817204704 25 344 1.6 8.0 0.00 0.00 0.00 70 1014.9
20180817203704 25 356 1.6 9.7 0.00 0.00 0.00 70 1015.0
20180817201704 25 350 3.2 12.9 0.00 0.00 0.00 70 1014.7
20180817200704 25 346 4.8 12.9 0.00 0.00 0.00 69 1014.6
20180817195705 25 346 3.2 12.9 0.00 0.00 0.00 69 1014.5
20180817194705 25 341 3.2 12.9 0.00 0.00 0.00 68 1014.4
20180817193704 25 334 6.4 16.1 0.00 0.00 0.00 67 1014.5
20180817192707 26 344 9.7 20.9 0.00 0.00 0.00 67 1014.3
20180817190705 26 342 9.7 22.5 0.00 0.00 0.00 65 1014.2
20180817185704 26 350 6.4 16.1 0.00 0.00 0.00 65 1014.1
20180817184705 26 354 8.0 19.3 0.00 0.00 0.00 65 1014.1
20180817183704 27 314 8.0 19.3 0.00 0.00 0.00 64 1014.1
20180817182704 27 2 6.4 16.1 0.00 0.00 0.00 64 1014.0
20180817181704 27 4 8.0 20.9 0.00 0.00 0.00 64 1014.1
20180817180707 27 336 9.7 16.1 0.00 0.00 0.00 65 1014.2
20180817175704 27 330 11.3 20.9 0.00 0.00 0.00 64 1014.4
20180817174705 27 340 9.7 20.9 0.00 0.00 0.00 64 1014.4
20180817173704 27 334 11.3 25.7 0.00 0.00 0.00 64 1014.4
20180817172704 27 336 11.3 27.4 0.00 0.00 0.00 64 1014.6
20180817171704 27 333 11.3 29.0 0.00 0.00 0.00 65 1014.7
20180817165705 27 330 9.7 25.7 0.00 0.00 0.00 65 1014.8
20180817164704 27 352 9.7 22.5 0.00 0.00 0.00 65 1014.9
20180817163703 26 314 9.7 25.7 0.00 0.00 0.00 66 1014.9
20180817162704 26 331 12.9 25.7 0.00 0.00 0.00 66 1014.9
20180817161704 26 325 12.9 24.1 0.00 0.00 0.00 65 1014.9
20180817160704 26 330 14.5 29.0 0.00 0.00 0.00 65 1014.9
20180817154704 26 341 14.5 25.7 0.00 0.00 0.00 65 1015.3
20180817153704 26 345 12.9 32.2 0.00 0.00 0.00 65 1015.2